EW0455 Weather Reports


time (UTC)temp
C
wind
direction
speed
KPH
gust
KPH
rain 1hr
cm
rain 24hr
cm
rain mn
cm
humidity
%
barometer
mb
20260906124109 25 120 0.0 1.6 0.00 0.00 0.00 97
20260906123209 25 121 0.0 1.6 0.00 0.00 0.00 97
20260906121409 24 0 0.0 0.0 0.00 0.00 0.00 96
20260906120509 24 0 0.0 0.0 0.00 0.00 0.00 96
20260906115609 24 0 0.0 0.0 0.00 0.00 0.00 96
20260906114709 24 0 0.0 0.0 0.00 0.00 0.00 96
20260906113809 24 0 0.0 0.0 0.00 0.00 0.00 96
20260906112909 24 0 0.0 0.0 0.00 0.00 0.00 96
20260906112009 24 123 0.0 1.6 0.00 0.00 0.00 96
20260906111109 24 0 0.0 0.0 0.00 0.00 0.00 96
20260906110209 24 0 0.0 0.0 0.00 0.00 0.00 96
20260906105309 24 0 0.0 0.0 0.00 0.00 0.00 96
20260906104409 24 0 0.0 0.0 0.00 0.00 0.00 96
20260906103509 24 123 0.0 1.6 0.00 0.00 0.00 96
20260906102609 24 0 0.0 0.0 0.00 0.00 0.00 96
20260906101709 24 0 0.0 0.0 0.00 0.00 0.00 96
20260906100809 24 0 0.0 0.0 0.00 0.00 0.00 96
20260906095909 24 0 0.0 0.0 0.00 0.00 0.00 96
20260906095009 24 0 0.0 0.0 0.00 0.00 0.00 96
20260906094109 24 0 0.0 0.0 0.00 0.00 0.00 96
20260906093209 24 0 0.0 0.0 0.00 0.00 0.00 96
20260906092309 24 0 0.0 0.0 0.00 0.00 0.00 96
20260906090509 24 0 0.0 0.0 0.00 0.00 0.00 96
20260906085609 25 0 0.0 0.0 0.00 0.00 0.00 96
20260906084709 25 0 0.0 0.0 0.00 0.00 0.00 96
20260906083809 25 0 0.0 0.0 0.00 0.00 0.00 96
20260906082909 25 0 0.0 0.0 0.00 0.00 0.00 96
20260906082009 25 123 0.0 1.6 0.00 0.00 0.00 96
20260906080209 25 123 0.0 1.6 0.00 0.00 0.00 96
20260906075309 25 123 0.0 1.6 0.00 0.00 0.00 96
20260906074409 25 123 0.0 1.6 0.00 0.00 0.00 96
20260906073509 25 123 0.0 1.6 0.00 0.00 0.00 96
20260906072609 25 73 0.0 3.2 0.00 0.00 0.00 96
20260906071709 25 0 0.0 0.0 0.00 0.00 0.00 95
20260906070809 25 0 0.0 0.0 0.00 0.00 0.00 96
20260906065909 25 0 0.0 0.0 0.00 0.00 0.00 96
20260906065009 25 0 0.0 0.0 0.00 0.00 0.00 96
20260906064109 25 0 0.0 0.0 0.00 0.00 0.00 95
20260906063209 25 0 0.0 0.0 0.00 0.00 0.00 95
20260906062309 25 0 0.0 0.0 0.00 0.00 0.00 95
20260906061409 25 0 0.0 0.0 0.00 0.00 0.00 95
20260906060509 25 0 0.0 0.0 0.00 0.00 0.00 95
20260906055609 25 0 0.0 0.0 0.00 0.00 0.00 95
20260906054709 25 0 0.0 0.0 0.00 0.00 0.00 95
20260906053809 25 0 0.0 0.0 0.00 0.00 0.00 95
20260906052909 25 0 0.0 0.0 0.00 0.00 0.00 95
20260906052009 25 0 0.0 0.0 0.00 0.00 0.00 95
20260906051109 25 0 0.0 0.0 0.00 0.00 0.00 95
20260906050209 25 0 0.0 0.0 0.00 0.00 0.00 95
20260906045309 25 0 0.0 0.0 0.00 0.00 0.00 95
20260906044409 25 0 0.0 0.0 0.00 0.00 0.00 95
20260906043509 26 0 0.0 0.0 0.00 0.00 0.00 95
20260906042609 26 0 0.0 0.0 0.00 0.00 0.00 95
20260906041709 26 0 0.0 0.0 0.00 0.00 0.00 95
20260906040809 26 0 0.0 0.0 0.00 0.00 0.00 95
20260906035909 26 0 0.0 0.0 0.00 0.00 0.03 94
20260906035009 26 0 0.0 0.0 0.00 0.00 0.03 94
20260906034109 26 0 0.0 0.0 0.00 0.00 0.03 94
20260906033209 26 198 0.0 3.2 0.00 0.00 0.03 94
20260906032309 26 187 0.0 3.2 0.00 0.00 0.03 94
20260906030509 26 0 0.0 0.0 0.00 0.00 0.03 94
20260906023809 26 0 0.0 0.0 0.00 0.00 0.03 93
20260906022909 26 0 0.0 0.0 0.00 0.00 0.03 93
20260906022009 27 0 0.0 0.0 0.00 0.00 0.03 93
20260906021109 27 179 0.0 3.2 0.00 0.00 0.03 92
20260906020209 27 146 0.0 3.2 0.00 0.00 0.03 93
20260906014409 27 139 0.0 1.6 0.00 0.00 0.03 92
20260906013509 27 138 0.0 1.6 0.00 0.00 0.03 92
20260906012609 27 138 0.0 1.6 0.00 0.00 0.03 92
20260906011709 27 136 0.0 1.6 0.00 0.00 0.03 92
20260906010809 27 135 0.0 1.6 0.00 0.00 0.03 92
20260906005909 27 135 0.0 1.6 0.00 0.00 0.03 92
20260906005009 27 0 0.0 0.0 0.00 0.00 0.03 92
20260906004109 28 135 0.0 3.2 0.00 0.00 0.03 91
20260906003209 28 135 0.0 1.6 0.00 0.00 0.03 91
20260906001409 28 195 0.0 6.4 0.00 0.00 0.03 91
20260906000509 28 195 0.0 3.2 0.00 0.00 0.03 91
20260905234709 28 108 0.0 3.2 0.00 0.00 0.03 90
20260905232909 29 0 0.0 0.0 0.00 0.00 0.03 89
20260905232009 30 0 0.0 0.0 0.00 0.00 0.03 89
20260905231109 30 0 0.0 0.0 0.00 0.00 0.03 88
20260905230209 30 0 0.0 0.0 0.00 0.00 0.03 88
20260905225309 31 0 0.0 0.0 0.00 0.00 0.03 87
20260905224409 31 0 0.0 0.0 0.00 0.00 0.03 87
20260905223509 31 0 0.0 0.0 0.00 0.00 0.03 87
20260905222609 31 0 0.0 0.0 0.00 0.00 0.03 85
20260905221709 31 0 0.0 0.0 0.00 0.00 0.03 83
20260905220809 31 0 0.0 0.0 0.00 0.00 0.03 83
20260905215909 31 0 0.0 0.0 0.00 0.00 0.03 84
20260905214109 32 0 0.0 0.0 0.00 0.00 0.03 83
20260905213209 31 0 0.0 0.0 0.00 0.00 0.03 83
20260905212309 32 0 0.0 0.0 0.00 0.00 0.03 82
20260905210509 32 0 0.0 0.0 0.00 0.00 0.03 82
20260905205609 32 127 0.0 1.6 0.00 0.00 0.03 79
20260905204709 32 130 1.6 12.9 0.00 0.00 0.03 78
20260905203809 32 133 0.0 3.2 0.00 0.00 0.03 81
20260905202909 32 122 1.6 9.7 0.00 0.00 0.03 76
20260905202009 32 129 1.6 8.0 0.00 0.00 0.03 77
20260905201109 32 128 1.6 9.7 0.00 0.00 0.03 79
20260905200209 32 128 1.6 8.0 0.00 0.00 0.03 80
20260905195309 32 130 1.6 8.0 0.00 0.00 0.03 78
20260905194409 33 123 1.6 11.3 0.00 0.00 0.03 78
20260905193509 33 127 3.2 11.3 0.00 0.00 0.03 79
20260905192609 32 133 1.6 9.7 0.00 0.00 0.03 79
20260905191709 32 130 3.2 11.3 0.00 0.00 0.03 82
20260905190809 32 129 3.2 11.3 0.00 0.00 0.03 79
20260905185909 32 131 1.6 9.7 0.00 0.00 0.03 77
20260905185009 32 128 0.0 9.7 0.00 0.00 0.03 78
20260905184109 32 127 1.6 8.0 0.00 0.00 0.03 80
20260905183209 32 130 1.6 8.0 0.00 0.00 0.03 77
20260905182309 32 130 1.6 8.0 0.00 0.00 0.03 79
20260905175609 32 131 1.6 9.7 0.00 0.00 0.03 81
20260905174709 31 128 1.6 11.3 0.00 0.00 0.03 84
20260905173809 31 133 0.0 3.2 0.00 0.00 0.03 84
20260905172009 32 132 0.0 6.4 0.00 0.00 0.03 84
20260905171109 31 131 1.6 9.7 0.00 0.00 0.03 84
20260905170209 31 127 1.6 9.7 0.00 0.00 0.03 84
20260905165309 31 132 1.6 8.0 0.00 0.00 0.03 84
20260905163509 30 128 1.6 16.1 0.00 0.00 0.03 86
20260905162609 29 126 1.6 11.3 0.00 0.00 0.03 86
20260905161709 30 133 1.6 11.3 0.00 0.00 0.03 86
20260905155909 29 133 0.0 6.4 0.00 0.00 0.03 87
20260905155009 30 123 0.0 3.2 0.00 0.00 0.03 87
20260905154109 29 140 1.6 6.4 0.00 0.00 0.03 88
20260905153209 28 137 0.0 3.2 0.00 0.00 0.03 88
20260905151409 28 133 0.0 6.4 0.00 0.00 0.03 89
20260905145609 27 132 1.6 8.0 0.00 0.00 0.03 89
20260905143809 27 130 1.6 9.7 0.00 0.00 0.03 91
20260905142909 27 129 0.0 8.0 0.00 0.00 0.03 93
20260905142009 26 126 0.0 8.0 0.00 0.00 0.03 96
20260905140209 25 128 0.0 6.4 0.00 0.00 0.03 97
20260905133509 25 128 1.6 9.7 0.00 0.00 0.03 97
20260905132609 25 142 0.0 1.6 0.00 0.00 0.03 97
20260905131709 24 143 0.0 6.4 0.00 0.00 0.03 97
20260905130809 24 142 0.0 3.2 0.00 0.00 0.03 97
20260905125909 24 142 0.0 1.6 0.00 0.00 0.03 97
20260905125009 24 150 0.0 3.2 0.00 0.00 0.03 97